Wind_Speed
6 7 7 8 8 9 10 11 11 10 10 11 11 11 12 12 12 12 12 11 11 11 10 10 9 9 9 8 8 8 8 8 8 8 8 8 8 8 7 6 5 5 5 5 5 4 4 4 3 2 3 4 4 5 5 4 3 1 0 2 3 4 4 4 4 4 4 4 3
8 8 8 9 9 9 9 11 11 11 10 10 11 11 11 11 12 12 12 12 11 11 10 10 9 9 9 9 9 9 9 10 9 9 9 8 8 7 6 6 5 5 5 5 5 5 4 4 3 3 4 5 5 5 5 4 2 1 1 1 2 3 3 3 3 3 3 2 2
8 8 9 9 10 11 11 12 13 13 13 13 13 12 12 12 12 12 12 12 11 11 10 10 10 10 10 10 10 10 10 11 10 10 9 8 8 7 7 6 6 5 5 5 4 4 4 4 5 5 5 5 4 4 3 2 2 2 2 2 2 2 3 3 3 3 3 3 3
8 9 9 10 11 12 13 13 14 14 14 14 14 13 12 12 12 12 12 11 11 11 11 11 11 11 11 11 12 11 11 10 10 10 10 9 8 7 7 7 7 6 5 4 4 5 5 4 4 4 4 3 3 3 3 3 3 3 3 3 3 3 4 4 4 4 4 4 4
9 10 10 11 12 12 13 13 13 14 14 13 13 13 13 12 12 11 11 11 11 12 12 12 12 12 12 11 11 11 10 9 9 9 10 10 9 8 7 7 6 5 5 4 4 4 4 3 3 3 3 3 4 4 4 4 4 4 4 3 4 4 4 4 5 5 6 6 5
11 12 12 12 12 13 13 13 13 14 14 13 13 13 13 13 12 12 12 13 13 13 13 12 12 12 12 11 11 11 11 10 9 9 9 9 9 9 8 7 6 6 5 5 5 4 4 4 4 3 3 3 4 4 4 5 4 4 4 4 4 4 5 5 6 6 7 7 7
12 13 14 14 14 14 14 14 14 14 14 14 14 14 14 14 14 14 14 14 14 13 13 12 12 11 11 11 11 11 11 10 10 9 9 9 10 9 8 7 7 6 6 6 6 6 5 5 4 4 4 4 4 4 5 5 4 4 4 4 4 4 5 5 6 6 7 7 7
13 14 15 16 16 16 16 16 15 15 15 15 15 15 15 15 15 15 15 15 14 14 13 12 11 12 12 12 12 11 11 11 10 10 9 9 9 9 8 8 8 8 7 7 7 7 6 6 6 5 5 5 5 5 6 6 6 5 5 5 5 5 5 5 5 5 6 6 6
14 15 16 17 18 17 17 16 16 15 16 16 16 16 16 16 15 15 15 14 14 14 13 13 12 12 12 12 12 12 11 10 10 10 9 9 9 9 9 9 9 9 9 9 8 8 8 8 7 7 7 6 6 6 6 7 7 7 7 7 6 6 6 6 6 6 6 7 7
15 16 17 18 18 18 18 17 16 16 16 16 17 16 16 15 14 14 14 14 14 13 14 13 13 12 12 11 11 10 10 10 9 9 9 10 10 10 11 11 11 11 11 10 10 10 10 9 9 9 8 8 8 8 7 8 8 8 8 8 8 7 7 7 8 8 8 9 9
16 17 18 18 18 18 18 18 17 17 16 16 16 16 15 15 14 13 13 13 13 14 14 14 13 12 11 10 10 10 10 10 10 10 11 11 12 12 12 12 12 12 12 12 11 11 11 11 10 10 10 9 9 9 9 9 9 9 9 9 8 8 8 8 9 9 9 10 10
17 17 18 18 18 18 18 17 17 17 16 16 16 15 15 14 14 13 13 13 14 14 14 13 12 11 10 10 10 10 11 12 12 12 12 12 13 13 13 13 13 14 14 13 13 12 12 11 11 11 11 10 10 9 9 9 9 10 10 10 9 9 9 9 9 9 10 10 10
17 17 17 17 17 17 17 17 17 16 16 16 15 15 14 14 14 14 14 14 14 14 14 13 12 11 10 11 11 11 12 12 12 12 12 12 12 13 13 13 14 15 15 15 14 13 12 12 12 12 11 11 10 10 9 9 10 10 10 10 10 10 10 10 10 10 11 11 12
16 16 17 17 16 16 16 16 16 15 15 15 15 14 14 14 14 14 14 14 14 14 14 12 11 10 10 10 11 11 11 12 12 13 13 13 12 13 13 14 16 17 17 17 15 14 13 12 12 11 11 10 10 10 10 10 10 10 10 10 10 10 10 10 11 11 12 13 13
16 16 16 16 16 15 15 15 14 14 14 14 14 14 14 14 14 13 12 12 13 12 11 11 11 10 10 10 11 11 12 12 12 13 13 13 13 14 15 16 16 17 17 17 15 13 11 11 10 10 9 9 9 10 10 10 10 10 10 10 10 10 11 11 12 12 13 14 14
15 15 15 15 15 14 14 13 13 13 13 13 13 13 13 12 12 11 10 9 9 9 9 9 9 10 10 11 11 12 12 13 13 13 14 14 14 14 14 14 14 14 14 14 12 10 9 8 8 8 8 8 8 9 9 9 9 9 9 10 10 11 12 12 13 14 14 15 16
15 15 14 14 14 13 13 12 11 11 11 11 11 11 11 10 10 9 7 6 7 7 7 8 9 10 11 12 12 12 13 13 13 13 14 14 13 12 11 11 11 11 10 10 9 9 8 8 7 7 6 7 7 8 9 9 9 9 10 11 12 12 13 13 14 14 15 16 16
14 14 13 13 12 12 11 10 9 9 9 9 9 8 8 8 7 6 6 6 6 7 8 9 10 11 12 12 12 12 12 12 12 13 13 12 11 10 9 8 8 8 8 8 8 8 9 9 8 8 8 8 8 9 9 10 10 11 12 12 13 13 14 14 14 15 15 16 17
13 13 12 11 10 10 9 8 8 7 7 7 7 8 8 8 7 7 7 7 7 7 8 9 10 10 10 11 11 11 11 11 11 12 11 11 10 9 8 7 7 7 7 7 8 8 9 10 11 11 11 11 11 11 11 11 12 12 13 13 14 14 15 15 15 16 16 17 17
12 11 11 10 9 8 7 7 7 6 7 7 8 8 8 8 8 8 8 8 7 7 7 8 9 10 10 11 11 12 12 11 11 12 12 12 12 12 11 11 11 11 11 11 11 11 12 12 13 13 13 13 13 13 13 13 13 13 14 14 14 15 15 16 16 16 17 17 17
10 10 9 9 8 7 6 6 6 6 7 7 7 7 7 7 7 7 7 7 8 8 9 9 10 11 11 12 12 12 11 11 11 11 12 13 13 13 14 14 14 14 14 14 14 14 13 13 13 13 13 13 14 14 14 14 14 14 15 15 15 16 16 16 16 17 17 17 17
9 9 8 8 7 7 6 6 6 6 6 6 6 5 5 5 6 6 7 8 9 10 10 11 11 11 11 11 11 11 10 10 9 9 10 11 12 13 13 14 14 15 15 14 14 14 14 14 14 14 14 14 14 14 14 14 15 15 15 16 16 16 16 16 16 17 17 17 17
8 8 8 7 6 6 6 6 5 5 5 4 4 5 5 5 6 8 9 10 10 10 10 10 10 10 10 10 10 9 9 9 9 9 10 10 11 12 13 13 13 14 14 13 13 14 14 15 15 14 14 14 14 15 15 15 15 15 16 16 16 16 16 16 16 16 17 17 17
7 7 7 7 6 6 6 5 5 4 4 4 4 4 5 6 7 8 9 10 10 9 8 8 8 9 9 9 8 8 9 9 10 10 10 10 11 11 11 12 12 12 13 13 14 14 15 14 14 13 13 13 14 15 15 15 15 15 16 16 16 16 17 17 17 17 17 17 17
7 7 7 6 6 5 5 4 4 4 4 4 4 4 5 6 7 7 8 8 8 8 8 7 8 8 8 8 8 9 9 9 10 10 11 11 11 11 11 11 11 11 11 12 13 14 14 14 13 13 13 13 13 14 15 15 16 16 16 16 16 16 17 17 17 17 17 17 17
7 6 6 5 5 5 5 4 4 4 4 4 4 4 4 5 5 5 5 6 7 7 7 7 8 9 9 8 9 9 10 10 10 10 10 11 11 11 11 11 10 10 10 10 12 13 13 13 13 13 12 12 13 14 15 15 16 16 16 16 16 17 17 17 18 17 17 17 17
7 6 5 5 5 4 4 4 3 3 4 4 4 4 4 4 4 4 5 5 5 6 6 7 7 8 9 9 9 10 10 10 10 10 10 11 11 11 11 11 10 9 9 10 11 13 13 13 12 12 12 12 13 14 15 15 15 16 16 16 16 17 17 17 17 17 17 17 17
6 6 5 4 4 3 3 3 3 3 3 4 4 4 5 5 5 5 6 6 6 7 7 7 7 7 8 9 9 10 10 11 11 11 11 11 11 11 11 11 11 9 9 10 12 13 13 13 13 13 13 13 13 14 15 15 16 16 16 16 16 17 17 17 17 17 17 17 17
5 4 4 3 3 2 2 2 3 3 3 4 4 5 5 6 7 7 8 9 9 9 9 9 8 9 9 10 10 11 11 11 11 11 11 11 11 11 12 11 11 10 10 11 13 14 14 14 14 14 14 14 13 14 15 15 16 16 16 17 17 17 17 17 17 17 17 17 17
4 3 3 2 2 2 2 2 2 3 4 4 5 6 7 8 8 9 10 10 11 11 11 10 10 11 11 12 12 12 12 12 12 12 12 12 12 12 12 12 11 11 10 12 13 14 15 15 15 15 15 15 15 15 15 16 17 17 17 18 18 18 18 18 18 18 18 18 18
4 3 3 3 3 2 3 3 3 4 4 5 6 7 8 9 10 10 10 11 11 11 11 12 12 12 12 13 12 12 12 12 12 12 12 12 12 12 12 13 12 11 10 12 13 14 15 15 15 15 16 16 16 16 16 17 18 18 18 19 19 19 19 19 18 18 18 18 18
4 4 4 4 3 3 3 4 4 4 5 6 6 7 8 9 10 10 10 11 11 12 13 13 13 13 13 13 13 12 12 12 12 12 12 12 12 13 13 13 12 11 10 12 14 15 15 16 16 16 17 18 18 17 17 18 19 19 19 20 20 20 19 19 19 18 18 18 18
4 4 5 4 4 4 5 5 5 5 5 6 7 8 9 10 10 10 10 11 12 13 14 14 13 13 13 13 13 13 12 12 12 12 12 12 13 13 13 13 12 11 11 13 14 15 16 16 16 17 18 19 19 18 18 19 19 19 19 19 19 19 19 19 19 18 18 18 18
5 5 5 5 5 5 5 5 5 6 6 6 7 8 9 10 11 11 11 11 12 13 14 14 13 13 13 12 12 12 12 12 12 12 12 13 13 13 13 13 12 12 13 14 15 16 16 17 17 18 19 20 19 18 18 18 19 19 19 19 19 19 18 18 18 18 18 18 18
5 5 5 6 6 6 6 6 6 6 7 7 8 9 10 11 12 12 12 12 12 13 14 14 14 13 13 12 12 12 12 12 12 12 12 13 13 13 13 14 12 12 13 14 16 17 17 18 18 19 20 20 18 17 17 18 18 18 18 19 18 18 18 17 17 17 17 17 17
6 6 6 6 7 7 7 7 7 7 8 8 8 9 11 12 13 13 12 12 13 14 14 15 14 14 13 13 12 12 12 13 13 13 12 12 13 13 13 14 13 12 12 14 15 17 18 19 19 19 19 17 16 16 17 17 17 17 17 18 17 17 17 16 16 16 16 16 16
7 7 7 7 7 7 7 7 7 8 9 9 10 11 11 12 13 13 13 12 13 14 15 15 14 14 13 13 13 13 13 13 13 13 13 12 12 13 13 14 14 13 12 13 15 17 19 19 19 18 17 16 15 16 16 16 16 16 16 17 16 16 16 16 16 16 16 15 15
8 8 8 8 8 7 7 7 8 9 9 10 11 12 13 13 14 14 13 12 13 14 15 15 14 14 14 13 13 13 13 13 13 13 12 12 12 12 13 14 14 13 13 13 15 17 18 19 18 17 16 15 15 16 16 16 16 16 16 16 16 16 15 15 15 15 15 15 15
8 8 7 7 7 8 8 8 9 9 10 11 12 13 13 14 14 13 13 12 13 14 14 14 14 14 14 13 13 13 13 13 13 13 12 12 12 12 13 13 14 14 14 14 15 16 17 17 17 16 15 15 15 15 15 15 15 15 15 15 15 14 14 14 14 15 15 16 16
8 7 7 7 8 8 8 9 10 10 11 11 12 13 13 13 13 13 12 12 13 13 14 14 14 14 14 14 14 14 14 13 13 13 12 12 12 12 13 13 14 14 14 14 14 15 15 16 16 15 15 14 14 14 14 14 15 15 15 14 14 14 14 14 15 15 16 16 16
8 7 7 7 8 8 9 10 10 11 11 12 12 12 13 12 12 12 12 13 13 14 14 14 14 14 14 14 14 14 14 14 13 13 13 12 12 12 13 13 13 14 14 14 14 14 14 15 15 14 14 14 14 14 14 14 14 14 14 14 14 15 15 16 16 16 16 16 16
Wind_Direction
345 339 335 331 328 326 325 323 319 314 311 310 310 309 308 304 300 298 295 291 287 286 285 283 283 284 283 280 280 281 283 287 287 289 290 293 293 292 292 290 291 293 296 297 297 294 290 285 278 267 263 269 270 269 268 268 263 250 88 68 73 77 81 83 79 72 65 59 50
336 333 328 325 324 322 320 321 319 315 309 307 304 303 302 300 297 295 293 290 286 284 282 280 279 279 279 279 279 280 282 285 286 286 286 285 284 282 281 279 279 281 284 286 286 283 275 268 257 245 243 250 251 250 250 251 239 202 148 113 100 96 101 108 109 109 108 104 93
329 327 325 325 325 324 322 321 320 318 315 311 307 302 298 296 295 293 291 288 284 281 280 279 280 279 279 280 280 281 281 283 283 282 280 278 275 273 273 275 273 272 273 273 271 267 261 257 252 248 246 246 236 230 228 218 195 171 160 155 147 147 149 152 154 159 165 174 181
322 322 322 323 323 323 321 318 317 315 314 310 306 301 296 292 291 289 287 286 283 281 280 281 282 282 280 279 279 279 277 276 276 277 277 274 271 268 267 268 271 269 262 257 256 254 252 250 247 242 233 219 211 207 204 196 183 176 174 176 177 181 184 186 187 187 190 199 200
320 320 319 319 319 319 318 315 313 311 308 305 302 298 295 291 287 287 287 287 284 283 281 281 281 280 278 275 274 273 271 268 268 270 272 272 270 268 265 262 260 254 246 243 241 239 235 226 214 204 199 197 199 201 202 199 192 190 192 195 196 199 203 206 207 206 206 206 210
322 321 320 319 317 316 315 313 310 307 303 299 296 295 295 294 290 289 290 290 288 285 281 277 275 274 272 269 268 270 270 267 265 266 269 269 270 267 262 256 249 243 236 230 222 215 209 204 202 198 197 203 207 207 202 198 200 204 209 213 214 213 214 215 217 217 215 214 217
322 321 321 320 318 316 314 313 310 306 301 297 294 294 294 294 292 291 290 288 286 283 278 272 268 267 267 270 269 269 267 266 263 263 265 267 269 265 257 251 244 237 229 220 213 209 209 214 220 217 211 211 219 216 210 210 217 226 229 232 234 230 228 228 228 226 223 223 225
321 321 322 321 319 316 314 311 308 305 302 299 295 294 293 293 292 290 287 285 282 278 274 268 264 264 267 270 270 268 267 267 266 264 264 264 264 259 254 249 243 235 227 221 219 220 224 229 235 236 233 231 233 230 225 226 233 242 248 249 247 244 243 245 240 237 235 234 236
321 322 322 321 319 316 313 310 306 302 299 297 295 294 293 291 288 285 283 280 277 274 271 267 266 266 266 265 266 267 267 267 266 264 261 258 258 257 254 250 246 239 234 232 232 235 238 242 245 246 244 244 245 243 240 240 244 249 254 255 254 252 249 249 246 246 246 246 246
322 322 321 319 318 315 313 309 305 300 296 294 294 293 291 287 282 278 276 275 273 271 269 268 268 265 263 262 263 264 265 265 265 264 262 260 258 257 255 254 252 248 245 246 247 247 248 250 252 253 254 254 255 254 252 250 247 249 252 254 254 253 251 250 250 251 252 252 252
321 321 319 318 316 314 312 308 304 301 298 295 294 294 292 288 282 276 274 274 272 270 269 269 266 263 262 263 264 264 266 267 268 268 268 267 267 265 261 259 259 258 257 257 257 256 256 256 257 258 259 261 262 262 259 254 250 249 250 251 251 253 255 256 257 258 258 258 258
321 319 318 316 315 313 311 308 304 302 300 298 297 297 296 293 287 282 277 275 273 272 273 272 268 265 267 271 272 273 274 274 274 274 274 274 273 270 267 265 265 265 264 264 262 261 260 259 260 262 263 264 264 264 262 257 255 253 253 252 252 254 256 258 260 261 262 264 264
320 318 317 316 316 314 311 308 305 303 301 300 300 300 299 297 294 289 284 280 277 277 278 277 273 272 275 280 283 284 283 282 281 280 280 279 276 274 273 273 272 271 270 268 265 263 262 262 263 265 266 266 266 265 264 262 260 259 259 258 258 259 260 261 263 264 265 267 268
319 318 318 318 317 315 312 310 307 305 303 303 303 303 303 302 300 295 290 285 283 282 282 281 279 280 284 289 294 295 293 291 289 288 286 284 281 280 279 278 277 276 275 274 270 266 263 264 265 266 267 268 268 267 266 264 263 263 264 264 264 264 265 266 267 268 268 268 269
321 320 320 320 319 317 314 312 310 308 307 307 307 308 309 308 306 303 297 291 288 287 286 285 287 290 295 300 304 305 304 301 298 296 293 289 287 285 283 282 282 282 281 280 276 272 268 267 268 268 268 267 268 268 268 266 265 265 267 268 269 270 271 271 271 271 271 271 271
323 324 323 322 321 318 316 314 312 310 310 311 313 314 315 314 314 313 309 304 298 294 294 296 299 305 311 313 315 314 311 308 304 300 295 290 288 287 287 289 292 293 292 290 287 283 279 276 273 271 268 267 268 270 272 273 273 272 272 272 273 273 272 273 272 273 274 274 275
327 327 327 325 323 321 319 318 316 316 317 320 323 324 323 323 322 324 328 330 324 319 318 318 323 328 330 326 324 321 316 312 308 303 298 293 291 291 293 297 303 308 311 312 311 307 301 293 289 285 282 279 279 279 280 281 280 278 276 274 273 272 272 273 273 274 275 276 277
330 330 330 329 328 327 327 327 328 330 334 339 342 345 347 348 348 350 355 358 352 344 339 337 340 340 339 336 332 329 327 323 320 315 309 305 304 304 304 305 311 320 328 332 331 326 319 313 310 308 307 301 296 292 288 285 282 279 277 275 274 273 273 273 273 274 274 275 276
333 334 334 334 335 335 337 340 343 349 356 4 11 17 20 23 24 24 22 17 4 353 349 350 350 350 349 348 346 346 347 344 340 336 333 330 327 326 324 323 324 326 327 327 323 319 316 314 314 313 311 306 300 296 291 287 283 281 279 278 276 275 275 275 274 274 275 275 276
337 337 338 339 340 343 347 353 359 8 16 24 29 34 36 36 36 34 30 23 11 1 358 359 0 2 2 1 0 0 0 358 355 352 349 346 341 339 336 333 329 325 321 316 311 309 307 308 309 308 306 302 298 295 292 289 285 283 281 280 279 278 277 277 277 276 276 276 277
339 339 339 340 343 347 352 356 2 11 22 32 36 37 36 34 32 27 20 11 5 2 2 3 4 4 3 1 360 358 357 354 352 349 347 346 343 339 335 332 328 323 319 315 312 310 309 308 307 305 301 297 294 292 289 287 285 282 281 281 280 280 279 279 278 278 277 277 277
339 338 337 338 340 343 346 350 354 3 16 26 30 28 24 18 13 5 358 354 355 357 359 359 358 356 353 350 348 346 343 341 337 334 333 334 334 332 328 324 321 318 315 311 308 307 306 305 304 301 297 293 290 287 285 283 282 281 281 281 281 281 280 279 278 278 278 278 277
336 334 332 332 335 338 339 341 350 2 12 16 18 15 6 358 354 352 352 353 355 356 355 352 349 346 343 339 335 332 328 325 322 319 318 317 318 319 317 315 312 309 305 302 301 301 302 302 301 298 294 290 287 285 284 284 283 282 283 283 283 283 282 281 280 279 279 278 277
331 329 327 327 327 329 333 338 344 351 359 5 9 6 0 356 357 359 1 2 3 1 356 349 343 339 335 331 325 322 319 316 314 314 312 310 309 308 306 303 301 298 296 296 300 303 305 303 300 296 293 291 289 289 289 288 286 285 285 285 285 285 284 283 282 280 279 277 276
325 324 324 325 325 326 330 333 337 341 346 352 358 4 7 5 8 10 10 8 7 3 357 347 339 334 331 327 321 317 315 312 311 309 309 307 304 300 297 294 290 287 288 293 302 308 309 306 300 295 293 293 295 295 294 292 290 288 287 285 285 285 285 284 282 280 278 276 275
320 319 320 322 323 325 328 334 340 347 353 358 4 10 12 10 12 11 8 4 1 357 351 342 335 332 329 322 317 313 312 310 308 305 303 303 301 299 296 294 292 289 288 293 304 310 311 308 304 300 298 297 298 299 298 295 293 290 288 285 284 283 282 282 281 279 278 276 274
315 316 317 320 323 326 329 336 348 358 5 9 9 9 7 1 357 353 349 347 345 342 338 334 330 328 324 318 312 309 309 309 307 305 303 302 303 303 302 301 299 296 294 297 307 313 314 313 310 307 304 301 300 300 298 296 294 291 288 284 282 281 280 279 279 279 279 277 276
312 314 315 318 321 325 332 342 355 5 8 6 1 356 351 348 343 339 335 333 331 329 328 327 323 320 318 316 313 311 310 309 309 307 305 304 305 305 306 307 306 304 300 301 309 314 316 314 311 308 306 304 302 300 298 296 293 291 288 285 283 281 280 280 280 280 281 280 280
307 309 311 310 312 319 329 344 355 359 356 350 344 339 337 337 336 335 333 332 332 332 330 328 324 323 321 318 317 315 314 313 312 311 310 308 308 308 308 308 309 306 303 303 310 314 315 314 311 309 307 306 304 301 299 296 293 291 288 286 284 283 282 281 282 282 282 283 283
294 294 291 286 288 296 309 327 338 339 336 333 332 333 334 333 333 332 333 333 334 333 331 329 326 324 322 320 319 318 317 316 316 314 313 311 309 309 309 309 309 308 305 304 309 312 314 313 311 308 307 306 304 301 297 295 293 290 288 286 284 283 282 282 283 283 283 283 284
277 272 266 263 268 277 290 303 312 316 320 325 328 332 334 332 331 331 331 332 333 333 331 328 325 323 320 320 319 319 318 318 318 316 315 313 310 309 309 309 309 307 304 303 307 311 312 311 309 307 305 305 304 300 296 293 290 288 286 284 282 282 282 282 283 283 283 283 283
264 261 258 258 263 271 282 291 299 307 314 321 325 329 329 328 327 327 329 331 333 333 331 329 327 324 322 321 320 320 320 319 318 317 315 313 311 310 309 309 309 306 302 301 305 309 311 309 308 306 305 304 303 299 294 290 288 285 283 281 280 280 280 281 282 282 283 283 284
256 257 259 260 265 271 278 286 295 304 312 317 321 323 322 321 322 323 325 329 332 333 332 329 327 325 323 321 321 320 320 319 317 315 314 312 311 310 309 308 308 304 299 299 304 308 310 310 309 308 306 305 303 298 292 289 287 284 282 280 280 280 280 280 281 282 283 284 285
246 251 255 261 266 272 279 286 294 302 308 312 315 315 315 315 317 318 321 326 329 331 330 329 326 324 321 320 320 319 318 317 314 313 312 311 310 309 308 306 306 303 300 301 304 308 311 312 312 310 309 307 303 297 291 289 286 284 281 280 280 280 281 281 282 283 284 285 285
239 245 252 260 266 272 279 287 295 301 305 306 305 304 306 310 313 316 319 323 326 327 328 327 325 323 320 319 319 318 316 314 311 310 309 309 308 307 305 304 304 304 303 303 305 308 311 314 314 312 311 309 302 296 292 289 287 284 283 282 282 282 283 284 284 284 284 284 283
236 240 247 257 264 271 279 288 296 301 303 299 294 293 299 306 312 316 318 319 322 324 325 325 324 322 320 319 318 317 315 313 310 308 306 306 305 304 303 303 303 304 304 303 304 307 312 315 315 315 312 308 301 296 294 291 288 286 285 285 285 285 286 286 286 285 284 282 281
235 237 243 251 262 272 282 290 295 299 300 297 293 294 299 305 310 315 317 317 319 320 322 322 322 321 319 318 316 315 313 311 309 306 304 303 302 302 302 302 303 304 303 301 302 306 311 315 316 315 312 306 300 297 295 293 291 290 289 288 288 287 288 287 286 284 282 281 280
237 239 244 253 264 276 286 291 295 295 296 296 298 301 304 306 310 314 315 315 316 317 318 319 319 319 317 316 314 312 310 309 307 304 301 300 299 300 301 301 302 302 302 300 300 303 308 313 315 314 310 304 301 299 297 295 293 291 290 288 287 286 286 285 285 284 282 281 280
240 244 252 262 271 280 288 293 295 294 294 295 299 303 306 308 310 312 312 312 312 312 313 315 315 316 315 314 312 309 308 307 307 304 300 297 296 296 297 298 298 300 301 300 300 302 306 310 311 311 308 304 301 300 298 295 293 290 288 287 286 287 287 286 286 285 285 284 282
242 248 258 267 276 284 290 296 298 298 297 298 300 303 305 307 307 308 308 308 309 310 311 311 312 313 313 312 310 307 306 306 307 306 302 297 294 292 291 292 294 298 300 302 302 303 305 307 309 309 309 306 303 301 298 295 292 291 291 291 293 293 293 292 290 289 288 286 284
243 251 262 272 280 287 293 297 299 300 301 301 301 302 303 304 304 305 306 308 309 310 310 310 310 311 312 311 309 307 306 306 307 306 303 297 293 290 289 289 293 297 301 304 306 307 307 308 308 310 310 308 306 303 300 297 296 296 297 298 298 298 297 295 293 291 289 287 285
Height
828 828 827 827 826 826 825 824 823 823 822 821 820 820 819 818 818 817 816 815 814 813 813 812 811 811 810 810 809 809 808 808 807 807 806 805 805 804 803 803 803 802 802 801 801 801 800 800 799 799 799 798 798 798 798 797 797 796 795 795 794 794 794 794 794 794 794 794 794
827 827 826 826 825 824 824 823 823 822 821 820 819 818 818 817 816 815 814 814 813 812 812 811 810 810 809 809 808 808 808 807 806 806 805 804 804 803 803 802 801 801 801 800 800 800 799 799 798 798 798 797 797 797 796 796 795 795 794 793 793 793 793 793 793 793 793 793 793
827 826 826 825 824 824 823 823 822 821 820 819 818 818 817 816 815 814 813 812 812 811 810 810 809 809 808 808 808 807 806 806 805 805 804 803 803 802 802 801 801 800 799 799 799 799 798 798 798 797 797 797 796 796 795 795 794 794 793 793 792 792 792 791 791 791 791 791 791
826 825 824 824 823 823 822 822 821 820 819 818 818 817 815 814 813 813 812 811 811 810 809 809 808 808 808 807 807 806 805 805 804 804 803 803 802 801 801 800 800 799 799 798 798 798 797 797 797 797 796 796 796 795 795 794 794 793 793 793 792 792 791 791 790 790 790 790 790
825 824 824 823 822 822 821 820 819 818 818 817 816 815 814 813 812 812 811 810 809 809 808 808 807 807 806 806 805 805 804 803 803 803 802 802 801 800 800 799 799 798 798 797 797 797 796 796 796 796 796 796 795 795 795 794 794 793 793 793 792 792 791 791 791 790 790 790 790
824 823 823 822 821 820 820 819 818 817 816 816 815 814 813 812 811 811 810 809 808 808 807 807 806 805 805 804 804 803 803 802 802 801 801 801 800 800 799 798 798 797 797 796 796 796 795 795 795 795 795 795 795 794 794 794 793 793 793 792 792 791 791 791 790 790 789 789 789
823 823 822 821 820 819 819 818 817 816 815 814 813 813 812 811 810 809 808 808 807 806 806 805 805 804 804 803 803 802 802 801 801 800 800 799 799 799 798 798 797 796 796 795 795 795 795 795 795 794 794 794 794 793 793 793 793 793 792 792 791 791 790 790 790 789 789 789 789
822 822 821 820 819 818 818 817 816 815 814 813 812 811 810 809 809 808 807 807 806 805 805 804 803 803 803 802 802 801 801 800 799 799 799 798 798 798 798 797 796 796 795 795 794 794 794 794 793 793 793 793 793 792 792 792 792 791 791 791 790 790 790 789 789 789 789 788 788
821 820 820 819 818 818 816 815 814 813 813 812 811 809 809 808 807 807 806 805 805 804 804 803 803 802 802 801 801 800 800 799 799 798 798 797 797 797 797 796 796 795 794 794 793 793 793 793 792 792 792 791 791 791 791 790 790 790 790 789 789 789 788 788 788 788 788 787 787
820 819 818 818 817 816 815 814 813 812 811 810 809 808 807 806 806 805 805 804 804 803 803 802 802 801 801 800 800 799 799 798 798 798 797 797 796 796 795 795 795 794 793 793 792 792 791 791 791 790 790 790 789 789 789 789 789 789 788 788 788 787 787 787 786 786 786 786 785
819 818 817 816 815 815 814 813 812 811 810 808 807 806 805 805 804 803 803 803 803 802 802 801 801 800 800 799 799 798 798 798 798 797 797 796 795 795 794 794 793 793 792 791 791 790 790 789 789 789 789 789 788 788 788 788 788 787 787 787 786 786 785 785 785 784 784 784 784
818 817 816 815 814 813 812 812 810 809 808 807 806 805 804 803 803 803 802 802 802 801 801 801 800 800 799 799 798 798 798 797 797 796 796 795 795 794 794 793 793 792 791 790 790 789 789 788 788 788 788 788 788 788 787 787 787 786 786 785 785 784 784 783 783 783 783 783 782
817 815 814 813 813 812 811 810 809 808 807 806 805 804 803 803 802 802 801 801 801 801 800 800 800 800 799 798 798 797 797 797 796 796 795 795 794 794 793 793 793 792 791 790 789 788 788 787 787 787 787 787 787 786 786 786 785 785 784 784 783 783 783 782 782 782 781 781 781
815 814 813 812 811 810 810 809 808 807 806 805 804 803 803 802 801 801 800 800 800 800 800 800 800 799 799 798 798 797 797 796 796 795 795 794 794 793 793 792 792 791 790 789 789 788 787 787 786 786 786 786 786 785 785 785 784 784 783 783 782 782 781 781 781 780 780 780 779
814 813 812 811 810 809 808 808 807 806 805 804 803 803 802 801 801 800 800 800 800 800 800 800 799 799 799 798 798 797 797 796 796 795 794 794 793 793 792 792 791 790 790 789 788 787 787 786 786 785 785 785 785 784 784 784 783 783 782 782 781 781 780 780 779 779 779 778 778
813 812 811 810 809 808 808 807 806 805 804 804 803 802 802 801 800 800 800 800 800 800 800 800 800 799 798 798 798 797 797 796 795 795 794 793 793 792 791 791 790 790 789 788 788 787 787 786 786 785 785 784 784 783 783 783 782 782 781 781 780 780 779 779 778 778 777 777 777
812 811 810 809 808 808 807 806 805 805 804 803 803 802 801 801 800 800 800 800 800 800 800 800 799 799 798 798 797 797 796 795 795 794 793 793 792 791 790 790 789 789 788 788 787 787 787 786 786 785 784 784 783 783 782 782 781 781 780 779 779 778 778 778 777 776 776 775 775
811 810 809 809 808 807 807 806 805 804 803 803 802 801 801 800 800 800 800 800 800 799 799 799 799 798 798 797 797 796 796 795 794 794 793 793 792 791 790 789 788 788 788 787 787 787 786 786 786 785 784 783 783 782 781 781 780 779 779 778 778 777 777 776 776 775 775 774 774
811 810 809 808 808 807 806 806 805 804 803 802 802 801 801 800 800 800 800 799 799 798 798 798 798 798 797 797 796 795 795 794 793 793 793 792 792 791 790 789 788 788 787 787 786 786 786 786 785 785 784 783 782 781 780 780 779 778 778 777 777 776 775 775 774 774 773 773 772
811 810 809 808 808 807 806 806 805 804 803 802 801 801 801 800 800 800 799 799 798 798 798 798 797 797 797 796 795 795 794 793 793 793 792 792 791 791 790 789 788 788 787 787 786 785 785 784 784 783 783 782 782 781 780 779 778 777 777 776 775 775 774 773 773 772 772 771 771
810 810 809 808 808 807 806 806 805 804 803 802 801 801 800 800 800 799 799 798 798 797 797 797 797 797 796 796 795 794 794 793 793 792 791 791 790 790 789 789 788 788 787 786 785 784 784 783 783 782 782 781 780 779 778 778 777 776 775 774 774 773 772 772 771 771 770 770 769
810 809 808 808 807 807 806 805 804 804 803 802 801 801 800 800 800 799 798 798 797 797 797 797 796 796 795 795 794 793 793 792 792 791 790 789 789 788 788 787 787 786 785 785 784 783 783 782 781 781 780 780 779 778 777 776 775 774 773 773 772 771 771 770 769 769 768 768 768
809 808 808 808 807 806 806 805 804 803 803 802 801 801 800 800 799 798 798 797 797 796 796 795 795 795 794 793 793 792 792 791 790 790 789 788 787 787 786 785 785 784 784 783 783 782 781 781 780 779 779 778 777 776 775 774 773 773 772 771 770 770 769 768 768 767 767 766 766
808 808 807 807 806 806 805 804 803 803 802 802 801 801 800 799 799 798 797 796 796 795 795 794 794 793 793 792 792 791 790 790 789 788 788 787 786 785 785 784 783 783 782 781 781 780 780 779 778 778 777 777 776 775 774 773 772 771 770 770 769 768 768 767 767 766 765 765 764
808 807 807 806 805 805 804 803 803 803 802 802 801 801 800 799 798 798 797 796 795 794 794 794 793 793 792 791 791 790 789 789 788 787 787 786 785 784 783 783 782 781 781 780 779 779 778 778 777 777 776 775 774 773 773 772 771 770 769 768 768 767 766 765 765 764 764 763 763
807 806 806 805 805 804 803 803 803 802 802 802 801 801 800 799 798 798 797 796 795 794 794 793 793 792 791 791 790 789 789 788 787 786 786 785 784 783 783 782 781 780 780 779 778 778 777 777 776 775 775 774 773 773 771 770 769 769 768 767 766 765 765 764 763 762 762 761 761
806 805 805 804 804 803 803 803 802 802 802 801 801 800 800 799 798 797 796 795 795 794 793 793 792 791 790 790 789 788 788 787 786 785 785 784 783 783 782 781 780 779 779 778 777 777 776 776 775 774 774 773 773 772 770 769 768 767 767 766 765 764 763 762 761 760 760 759 759
805 804 804 804 803 803 803 802 802 801 801 801 800 800 799 798 798 797 796 795 794 793 793 792 791 790 790 789 788 788 787 786 785 784 784 783 782 782 781 780 779 779 778 777 776 776 775 775 774 773 773 772 772 771 770 768 767 766 765 764 763 762 761 760 759 759 758 758 757
804 804 803 803 803 803 802 802 801 801 801 800 800 799 798 798 797 797 796 795 794 793 792 791 790 790 789 788 788 787 786 785 784 783 783 782 781 781 780 779 778 778 777 776 775 775 774 773 773 772 772 771 770 770 768 767 766 765 763 762 761 760 759 758 758 757 756 756 755
803 803 803 803 803 802 802 801 801 800 800 799 799 798 798 797 797 796 795 794 793 792 792 791 790 789 788 788 787 786 785 784 783 783 782 781 780 780 779 778 778 777 776 774 774 773 773 772 772 771 770 770 769 768 768 766 765 763 762 761 760 759 758 757 756 756 755 754 754
803 802 802 802 802 802 801 801 800 800 799 798 798 797 797 796 796 795 794 793 792 791 791 790 789 788 787 787 786 785 784 783 783 782 781 780 779 779 778 777 776 776 774 773 773 772 772 771 770 770 769 768 768 767 766 765 764 762 761 759 758 757 756 756 755 754 753 753 753
802 801 801 801 801 801 800 800 799 799 798 798 797 796 796 795 795 794 793 792 791 790 789 788 788 787 786 785 785 784 783 783 782 781 780 779 778 778 777 776 775 774 773 772 772 771 771 770 769 768 768 767 766 766 764 763 762 761 759 758 756 756 755 754 753 753 752 752 751
801 801 800 800 800 800 799 799 798 798 797 797 796 796 795 795 794 793 792 792 790 789 788 788 787 786 785 784 784 783 783 782 781 780 779 779 778 777 776 775 774 773 772 771 770 770 769 769 768 767 766 765 765 764 763 762 760 758 757 756 754 754 753 753 752 751 751 750 750
800 800 800 799 799 799 798 798 797 797 796 795 795 795 794 794 793 792 791 790 790 789 788 787 786 785 784 784 783 782 782 781 780 779 778 778 777 776 775 774 773 772 771 770 769 769 768 768 767 766 765 764 763 762 761 759 758 757 755 754 753 752 751 751 750 750 749 749 748
799 799 799 799 798 798 798 797 796 795 795 794 794 794 793 793 792 791 790 789 789 788 787 786 785 784 784 783 782 782 781 780 779 778 778 777 776 775 774 773 772 771 770 769 768 768 767 766 765 764 763 762 761 760 759 758 756 754 753 752 751 750 750 749 749 748 748 748 747
798 798 798 798 798 797 796 796 795 794 794 793 793 793 792 792 791 790 789 788 788 787 786 785 784 783 783 782 781 781 780 779 778 777 776 776 775 774 773 772 771 770 769 768 767 766 766 765 764 763 762 761 760 759 757 756 754 753 751 750 749 749 748 748 748 747 747 746 746
797 797 797 797 796 796 795 795 794 793 793 793 792 792 791 790 789 788 788 787 787 786 785 784 783 783 782 781 780 780 779 778 777 776 775 774 773 773 772 771 770 769 768 767 766 765 764 763 763 762 761 760 758 757 756 754 753 751 750 749 748 748 747 747 746 746 745 745 744
795 796 796 795 795 795 794 793 793 792 792 792 791 791 790 789 788 788 787 786 786 785 784 783 782 782 781 780 779 778 778 777 776 775 774 773 773 772 771 770 769 768 767 766 765 764 763 762 761 760 759 759 758 756 754 753 751 750 749 748 747 747 746 746 745 744 743 743 742
794 794 794 794 794 793 793 793 792 791 791 791 790 789 789 788 787 787 786 786 785 784 783 782 781 780 780 779 778 777 777 776 775 774 773 772 771 771 770 769 768 767 766 765 764 763 762 761 760 759 758 758 756 755 753 752 750 749 748 747 746 745 744 744 743 743 742 741 741
793 793 793 793 793 793 792 791 791 790 790 789 789 788 788 787 787 786 785 784 784 783 782 781 780 779 779 778 777 776 775 774 774 773 772 771 770 769 768 768 767 765 764 764 763 762 761 760 759 758 757 756 755 754 753 751 749 748 747 746 745 744 743 743 742 741 740 739 739
792 792 792 792 792 792 791 790 790 789 789 788 788 788 787 786 786 785 784 783 783 782 781 780 779 778 778 777 776 775 774 773 773 772 771 770 769 768 767 766 765 764 763 763 762 761 760 759 758 757 756 755 754 753 752 750 748 747 746 745 744 743 743 742 741 740 739 738 737